Location: Bettgenhausen
(50.6463°N, 7.5681°E)
Time: 04:50:20
(UTC+00:00)

Cosmos 2026 Rocket - Pass Details

Date: 27 February 2020
Orbit: 938 x 1002 km, 82.9° (Epoch: 02 April)

Event Time Altitude Azimuth Distance (km) Brightness Sun altitude
Rises 19:46:58 0° 348° (NNW) 3,673 7.4 -25.9°
Reaches altitude 10° 19:49:30 10° 347° (NNW) 2,712 6.7 -26.2°
Maximum altitude 19:55:40 73° 265° (W) 998 4.1 -27.1°
Enters shadow 19:58:21 35° 189° (S) 1,481 4.8 -27.5°
